AMAZONAS 4A

Last updated on Fri Dec 19 2025 00:02:51 GMT+0000 (Coordinated Universal Time)

1 39616U 14011A 25352.51226303 -.00000227 00000+0 00000+0 0 9991 2 39616 0.0670 196.7525 0004846 51.6723 309.3626 1.00273876 42909
UTC large
Height (km)
Speed (km/s)
/
Latitude / Longitude
Inclination (degrees)
Orbital Period (minutes)
Azimuth
Elevation
Range (km)
Doppler Factor

Next 0 passes for location: London (51.5072 / 0.1276)

Sorry there are no passes over London.